Погода Богородское

Погода Богородское : погода сейчас, прогноз погоды и архив. Всё, что Вы хотите узнать о погоде Богородское!

Поиск расширенной информации на нашем сайте:

Полезная информация: Продаю машину для чистки жалюзи.

Другие новости

Новости СМИ2

Главная страница сайта

Новости сайта

02.10.2013

Напоминаем, что на нашем новом сайте вы можете получить высокодетализированные прогнозы погоды по пунктам России, СНГ и мира (включающие важные для авиации метеовеличины, такие как направление и скорость ветра, видимость, явления погоды, количество и форма облачности, нижняя и верхняя граница облачности), а также ознакомиться с разнообразными материалами по авиационной метеорологии и подборкой полезных ссылок на эту тему.

Сайт Метеоцентр.Азия посвящён разработке технологий оптимизации авиаметеорологического обслуживания, включая проектирование и перспективное создание нескольких автоматизированных авиаметеорологических систем:
- система выпуска высокодетальных прогностических карт явлений погоды для нижнего воздушного пространства по России и ближнему зарубежью;
- система верификации прогнозов TAF (выпускаемых синоптиками официальных АМСГ РФ и ближнего зарубежья) и AUTOTAF (выпускаемых сайтом Метеоцентр.Азия) - выявление ошибок, онлайн-сопоставление с фактической погодой METAR, автоматическое внесение коррективов в прогнозы при резком отклонении фактической погоды от прогноза, подсчёт оправдываемости прогнозов по элементам и в целом;
- система обработки, анализа и отображения авиаметеорологической информации для применения провайдерами метеорологической информации.

Рекомендуем: ЖБИ для обустройства и строительства - плита перекрытия жби on-line на betfor.ru.

Погода Богородское - сегодня

Время (UTC), дата Ветер
(°,м/с) 
Видим.   Явления Облачность Т
(°С)
Тd
(°С)
f(%) Тe
(°С)
Pmin
(гПа)
dP
(гПа)
Po
(мм)
O2
(г/м3)
Тmin Tmax R s Состояние
почвы
06 23.03.17 350 (С) 4000 м  слаб. снег{ливн. осадки}  10/4 600 м кучево-дожд., средняя 
[Cb cap|As op]
-0.1 -3 81 -3  1015.6  -0.1  758  306           
09 23.03.17 010 (С) 20000 м  {снег}  10/8 600 м средняя, верхняя 
[Sc|Ac As|Ci fib]
-0.6 -4.7 74 -2  1016.7  1.1  759  307    +0.5  0.0     
12 23.03.17 010 (С) 20000 м  {снег}  6/3 600 м средняя, верхняя 
[Sc|Ac lent|Ci fib]
-1.6 -5.2 76 -4  1017.7  0.9  760  309           
15 23.03.17 360 (С) 20000 м    4/0 средняя, верхняя 
[Ac lent|Ci fib]
-3.1 -6.3 79 -5  1017.6  0.1  760  310           
18 23.03.17 010 (С) 20000 м    5/0 средняя, верхняя 
[Ac lent|Ci fib]
-4.5 -8.5 74 -6  1017.1  -0.5  759  312           
21 23.03.17 010 (С) 20000 м    10/0 средняя, верхняя 
[Ac lent|Ci fib]
-5.6 -9.5 74 -7  1017.4  0.3  760  313  -5.6      31  неравномерный
сухой снег
100% 
00 24.03.17 010 (С) 20000 м    9/0 средняя, верхняя 
[Ac As|Ci fib]
-3.5 -9.3 64 -6  1017.8  0.4  760  311  -5.7         
03 24.03.17 010 (С) 20000 м    8/0 средняя, верхняя 
[Ac As|Cs]
-0.3 -9.6 49 -3  1016.7  -1.1  759  307           
06 24.03.17 340 (С) 20000 м    ясно 
+1.4 -9.6 44 1016.1  -0.5  759  305           
09 24.03.17 350 (С) 20000 м    8/0 средняя, верхняя 
[Ac As|Ci fib]
+0.4 -9.4 48 1016.5  0.4  759  306    +1.5       
12 24.03.17 350 (С) 20000 м    8/0 верхняя 
[Ci fib]
-3.5 -9.5 63 -3  1017.5  0.9  760  311           
15 24.03.17 тихо ()   20000 м    ясно 
-7.9 -10.9 79 -8  1017.5  760  316           
18 24.03.17 тихо ()   20000 м    ясно 
-9.8 -12.7 79 -10  1017.5  760  319           
21 24.03.17 050 (СВ) 20000 м    8/0 средняя, верхняя 
[Ac lent|Ci fib]
-11.1 -12.7 88 -11  1018.4  0.8  760  321  -12.6      30  неравномерный
сухой снег
100% 
00 25.03.17 360 (С) 20000 м    8/4 600 м средняя, верхняя 
[Sc|Ac trans|Ci fib]
-5.1 -10.8 64 -6  1018.6  0.3  761  313           
03 25.03.17 350 (С) 20000 м    6/3 600 м средняя 
[Sc|Ac trans]
+0.7 -10.4 43 -1  1017.7  -0.8  760  306           
06 25.03.17 360 (С) 20000 м    4/4 600 м 
[Sc]
+1.7 -11.4 37 1017.2  -0.5  760  305           
09 25.03.17 190 (Ю) 20000 м    4/4 600 м кучево-дожд. 
[Cb cap]
-1.8 -8.5 60 -1  1017.7  0.5  760  309    +1.9       
12 25.03.17 130 (ЮВ) 20000 м    ясно 
-5.6 -11.1 65 -5  1018.8  761  314           
15 25.03.17 090 (В) 20000 м    ясно 
-9.5 -11.9 83 -9  1018.9  761  319           
18 25.03.17 тихо ()   20000 м    6/0 средняя 
[Ac trans]
-8.9 -10.7 87 -9  1018.5  -0.3  761  318           
21 25.03.17 170 (Ю) 20000 м    6/0 средняя, верхняя 
[Ac lent|Cc]
-11.2 -12.4 91 -11  1019  0.4  761  321  -11.5      29  неравномерный
сухой снег
100% 
00 26.03.17 170 (Ю) 20000 м    3/0 верхняя 
[Ci fib]
-7.3 -10.9 75 -9  1019  0.1  761  316           
03 26.03.17 170 (Ю) 20000 м    ясно 
-1.4 -8.3 59 -2  1018.4  -0.4  761  309           
06 26.03.17 210 (ЮЗ) 20000 м    6/5 600 м кучево-дожд., средняя 
[Cb cap|Ac trans]
+0.2 -6.4 61 -1  1017.3  -1.1  760  307           
Время (UTC), дата Ветер
(°,м/с) 
Видим.   Явления Облачность Т
(°С)
Тd
(°С)
f(%) Тe
(°С)
Pmin
(гПа)
dP
(гПа)
Po
(мм)
O2
(г/м3)
Тmin Tmax R s Состояние
почвы

Для получения пояснительной информации подведите курсор к названию столбца.

ПОГОДА Богородское - архив

Всё, что Вы хотите узнать о погоде Богородское - удобно и подробно!

Выберите нужную дату (начиная с 1 января 2015* года) и нажмите кнопку "Найти".
Будут отображены архивные сводки погоды по пункту Богородское, начиная с указанной даты.


Отображать данные в формате CSV (для использования в таблицах Excel)


Внимание! Наш архив погоды предназначен исключительно для личного некоммерческого использования в познавательных целях. Если Вам необходимы официальные справки о состоянии погоды (для производственных, юридических, коммерческих и т.п. целей), обращайтесь в органы Росгидромета.

*Примечание: данная дата относится к архиву по метеостанциям СССР (Россия, СНГ, Балтия).
Архив по метеостанциям Зарубежной Европы и Азии (кроме Китая) хранится 10 дней, по другим регионам земного шара (Китай, Африка, Америка, Австралия, Океания) - 1 день.

Богородское - район местоположения метеостанции


Название, широта, долгота, высота метеостанции:
Богородское 52.4°ш. 140.5°д. 35 м над ур. моря [Российская Федерация]

Дополнительная информация

В oтличие oт бoльшинства пoгoдных сайтoв мы публикуем пoдрoбную метеoинфoрмацию в детальнoм прoфессиoнальнoм фoрмате.

Характеристики температуры и влажнoсти вoздуха измеряются на высoте 2 м в тени вдали oт зданий и деревьев.
Скoрoсть ветра измеряется на высoте 10 м (на урoвне рoста челoвека скoрoсть ветра ниже в 1.5-2 раза). Если метеoстанция нахoдится в гoрoде или в лесу, тo скoрoсть ветра занижена на 2-4 м/с пo сравнению с oткрытым местoм. Скoрoсть ветра над акватoриями крупных рек и oзёр, а также на вершинах хoлмoв на 2-5 м/с выше, чем в oбычных услoвиях.
Атмoсфернoе давление в разных тoчках местнoсти мoжет значительнo oтличаться oт давления на метеoстанции, в зависимoсти oт услoвий рельефа (при пoдъёме на 10 м давление пoнижается примернo на 1 мм рт.ст.).